Grayson, KY (41143)

3:54 AM EST on February 09, 2016 (GMT -0500)
Green | | Change Station
CLOSE
Current Station
Personal Weather Station
Location: Olive Hill, KY
Elevation: 883 ft
Nearby Weather Stations
Active Advisory: Winter Weather Advisory

Elev 883 ft 38.19 °N, 83.08 °W | Updated 8 minutes ago

Overcast
Overcast
25.5 °F
Feels Like 26 °F
N
0.0
Wind Variable Wind from North
Gusts 0.0 mph

Today
High -- | Low -- °F
--% Chance of Precip.
Yesterday
High -- | Low -- °F
Precip. -- in
Pressure 29.70 in
Visibility 7.0 miles
Clouds Few 1800 ft
Overcast 4000 ft
Windchill 26 °F
Dew Point 6 °F
Humidity 43%
Rainfall Not available.
Snow Depth Not available.
7:29 AM 6:02 PM
New Moon, 1% visible
METAR KHTS 090851Z 26008KT 7SM -SN FEW018 OVC040 M03/M07 A2968 RMK AO2 SLP057 P0000 60000 T10331072 51003
Pressure 29.70 in
Visibility 7.0 miles
Clouds Few 1800 ft
Overcast 4000 ft
Windchill 26 °F
Dew Point 6 °F
Humidity 43%
Rainfall Not available.
Snow Depth Not available.
7:29 AM 6:02 PM
New Moon, 1% visible
METAR KHTS 090851Z 26008KT 7SM -SN FEW018 OVC040 M03/M07 A2968 RMK AO2 SLP057 P0000 60000 T10331072 51003

10-Day Weather Forecast

Almanac

Astronomy

Feb. 09, 2016 Rise Set
Actual Time
Civil Twilight
Nautical Twilight
Astronomical Twilight
Moon
Length of Visible Light
Length of Day
Tomorrow will be .
, % of the Moon is Illuminated

Today's Extremes

State Highs State Lows

Community

WunderPhotos

Upload Photos

1,891,571 photos uploaded!

WunderBlog® & News

Nearby

Air Quality

  Air Quality AQ Index Pollutant
Not available.

Snow Depth

Station Depth Elevation

Earthquake Activity

City Distance Mag. Time & Date
Minimum magnitude displayed is 2.5.

Coastal Water Temperatures

Place Temperature

Stations

Nearby Weather Stations

Station Location Temp. Windchill Dew Point Humidity Wind Precip. Elev Updated Type
                   

Watches & Warnings

Winter Weather Advisory
Issued: 9:43 PM EST Feb. 8, 2016 – National Weather Service

... Winter Weather Advisory remains in effect until 7 am EST
Wednesday...

* hazard types... snow.

* Snow accumulations... snow accumulation of 2 to 6 inches over a
36 hour period. Some settling and melting of fallen snow is
expected to occur during the advisory period.

* Timing... snow showers will be around for the mid week period
with varying intensity.

* Impacts... travel may be difficult at times. Visibilities will
be limited at times.

Precautionary/preparedness actions...

A Winter Weather Advisory for snow means that periods of snow
will cause primarily travel difficulties. Be prepared for snow
covered roads and limited visibilities... and use caution while
driving.